Istanbul, Turkey

8:52 PM +03 on May 27, 2018 (GMT +0300)
Ataturk

Weather History for LTBA - May, 2013

Change the Weather History Date:

Friday, May 10, 2013

  Actual Average Record
Temperature  
Mean Temperature 62 °F -  
Max Temperature 66 °F 72 °F 77 °F (2003)
Min Temperature 57 °F 57 °F 46 °F (1999)
Degree Days  
Heating Degree Days 4    
Growing Degree Days 12 (Base 50)    
Moisture  
Dew Point 53 °F    
Average Humidity 74    
Maximum Humidity 88    
Minimum Humidity 60    
Precipitation  
Precipitation 0.00 in - - ()
Sea Level Pressure  
Sea Level Pressure 29.91 in    
Wind  
Wind Speed 7 mph ()    
Max Wind Speed 14 mph    
Max Gust Speed -    
Visibility 6.2 miles    
Events      
Averages and records for this station are not official NWS values.
T = Trace of Precipitation, MM = Missing Value Source: Averaged Metar Reports

Daily Weather History Graph

Daily Weather History Graph

Search for Another Location

Airport or City:

Astronomy

May. 10, 2013 Rise Set
Actual Time 5:52 AM EEST 8:10 PM EEST
Civil Twilight 5:21 AM EEST 8:41 PM EEST
Nautical Twilight 4:43 AM EEST 9:19 PM EEST
Astronomical Twilight 4:01 AM EEST 10:01 PM EEST
Moon 6:02 AM EEST (5/10) 8:42 PM EEST (5/10)
Length of Visible Light 15h 20m
Length of Day
14h 18m
New Moon, 0% of the Moon is Illuminated
May 10
New Moon
May 18
First Quarter
May 25
Full
May 31
Last Quarter
Jun 8
New

Hourly Weather History & Observations

Time (EEST) Temp. Dew Point Humidity Pressure Visibility Wind Dir Wind Speed Gust Speed Precip Events Conditions
12:20 AM 60.8 °F 51.8 °F 72% 29.95 in 6.2 mi NE 12.7 mph - N/A   Mostly Cloudy
12:50 AM 60.8 °F 51.8 °F 72% 29.95 in 6.2 mi NE 11.5 mph - N/A   Mostly Cloudy
1:20 AM 60.8 °F 51.8 °F 72% 29.95 in 6.2 mi ENE 8.1 mph - N/A   Mostly Cloudy
1:50 AM 60.8 °F 53.6 °F 77% 29.92 in 6.2 mi NE 6.9 mph - N/A   Mostly Cloudy
2:20 AM 60.8 °F 53.6 °F 77% 29.92 in 6.2 mi NNE 6.9 mph - N/A   Mostly Cloudy
2:50 AM 60.8 °F 53.6 °F 77% 29.92 in 6.2 mi NNE 9.2 mph - N/A   Mostly Cloudy
3:00 AM 61 °F 54 °F 71% 29.93 in 6 mi NNE 9.2 mph - -   Mostly Cloudy
3:20 AM 60.8 °F 53.6 °F 77% 29.92 in 6.2 mi NNE 11.5 mph - N/A   Mostly Cloudy
3:50 AM 60.8 °F 53.6 °F 77% 29.92 in 6.2 mi NNE 10.4 mph - N/A   Mostly Cloudy
4:20 AM 60.8 °F 53.6 °F 77% 29.89 in 6.2 mi NNE 8.1 mph - N/A   Mostly Cloudy
4:50 AM 60.8 °F 51.8 °F 72% 29.89 in 6.2 mi NNE 8.1 mph - N/A   Mostly Cloudy
5:20 AM 60.8 °F 53.6 °F 77% 29.89 in 6.2 mi NNE 6.9 mph - N/A   Mostly Cloudy
5:50 AM 60.8 °F 53.6 °F 77% 29.89 in 6.2 mi North 6.9 mph - N/A   Mostly Cloudy
6:20 AM 60.8 °F 53.6 °F 77% 29.89 in 6.2 mi NNE 5.8 mph - N/A   Mostly Cloudy
6:50 AM 60.8 °F 53.6 °F 77% 29.89 in 6.2 mi NNE 9.2 mph - N/A   Mostly Cloudy
7:20 AM 62.6 °F 53.6 °F 72% 29.89 in 6.2 mi Variable 5.8 mph - N/A   Mostly Cloudy
7:50 AM 60.8 °F 53.6 °F 77% 29.89 in 6.2 mi NNE 5.8 mph - N/A   Mostly Cloudy
8:20 AM 62.6 °F 53.6 °F 72% 29.92 in 6.2 mi NE 5.8 mph - N/A   Mostly Cloudy
8:50 AM 62.6 °F 51.8 °F 68% 29.92 in 6.2 mi Variable 5.8 mph - N/A   Mostly Cloudy
9:00 AM 63 °F 53 °F 60% 29.92 in 6 mi NE 5.8 mph - -   Mostly Cloudy
9:20 AM 62.6 °F 51.8 °F 68% 29.92 in 6.2 mi NNE 6.9 mph - N/A   Mostly Cloudy
9:50 AM 62.6 °F 53.6 °F 72% 29.92 in 6.2 mi North 8.1 mph - N/A   Mostly Cloudy
10:20 AM 62.6 °F 51.8 °F 68% 29.92 in 6.2 mi NNE 9.2 mph - N/A   Mostly Cloudy
10:50 AM 60.8 °F 51.8 °F 72% 29.92 in 6.2 mi North 10.4 mph - N/A   Mostly Cloudy
11:20 AM 60.8 °F 51.8 °F 72% 29.92 in 6.2 mi North 9.2 mph - N/A   Mostly Cloudy
11:50 AM 60.8 °F 53.6 °F 77% 29.95 in 6.2 mi NE 6.9 mph - N/A   Mostly Cloudy
12:20 PM 62.6 °F 53.6 °F 72% 29.95 in 6.2 mi NNE 5.8 mph - N/A   Mostly Cloudy
12:50 PM 62.6 °F 53.6 °F 72% 29.92 in 6.2 mi Variable 5.8 mph - N/A   Mostly Cloudy
1:20 PM 62.6 °F 53.6 °F 72% 29.92 in 6.2 mi NE 5.8 mph - N/A   Mostly Cloudy
1:50 PM 62.6 °F 53.6 °F 72% 29.92 in 6.2 mi SE 4.6 mph - N/A   Mostly Cloudy
2:20 PM 64.4 °F 55.4 °F 73% 29.92 in 6.2 mi Variable 3.5 mph - N/A   Mostly Cloudy
2:50 PM 64.4 °F 55.4 °F 73% 29.92 in 6.2 mi Variable 1.2 mph - N/A   Mostly Cloudy
3:00 PM 65 °F 54 °F 60% 29.92 in 6 mi SW 1.2 mph - -   Mostly Cloudy
3:20 PM 62.6 °F 55.4 °F 77% 29.92 in 6.2 mi South 5.8 mph - N/A   Mostly Cloudy
3:50 PM 62.6 °F 53.6 °F 72% 29.92 in 6.2 mi SSW 5.8 mph - N/A   Mostly Cloudy
4:20 PM 64.4 °F 55.4 °F 73% 29.92 in 6.2 mi SSW 5.8 mph - N/A   Mostly Cloudy
4:50 PM 64.4 °F 53.6 °F 68% 29.89 in 6.2 mi South 5.8 mph - N/A   Scattered Clouds
5:20 PM 64.4 °F 53.6 °F 68% 29.89 in 6.2 mi SSW 5.8 mph - N/A   Scattered Clouds
5:50 PM 64.4 °F 53.6 °F 68% 29.89 in 6.2 mi SSW 4.6 mph - N/A   Scattered Clouds
6:20 PM 62.6 °F 53.6 °F 72% 29.89 in 6.2 mi SW 4.6 mph - N/A   Scattered Clouds
6:50 PM 62.6 °F 53.6 °F 72% 29.89 in 6.2 mi West 3.5 mph - N/A   Scattered Clouds
7:20 PM 62.6 °F 53.6 °F 72% 29.89 in 6.2 mi West 3.5 mph - N/A   Mostly Cloudy
7:50 PM 62.6 °F 53.6 °F 72% 29.89 in 6.2 mi West 4.6 mph - N/A   Mostly Cloudy
8:20 PM 62.6 °F 53.6 °F 72% 29.89 in 6.2 mi NW 6.9 mph - N/A   Mostly Cloudy
8:50 PM 59.0 °F 53.6 °F 82% 29.89 in 6.2 mi North 11.5 mph - N/A   Scattered Clouds
9:00 PM 60 °F 53 °F 70% 29.90 in 6 mi North 11.5 mph - -   Scattered Clouds
9:20 PM 57.2 °F 51.8 °F 82% 29.89 in 6.2 mi NNW 13.8 mph - N/A   Partly Cloudy
9:50 PM 57.2 °F 53.6 °F 88% 29.89 in 6.2 mi NNW 12.7 mph - N/A   Partly Cloudy
10:20 PM 57.2 °F 53.6 °F 88% 29.89 in 6.2 mi North 10.4 mph - N/A   Partly Cloudy
10:50 PM 57.2 °F 53.6 °F 88% 29.89 in 6.2 mi North 10.4 mph - N/A   Partly Cloudy
11:20 PM 57.2 °F 53.6 °F 88% 29.89 in 6.2 mi NNE 6.9 mph - N/A   Partly Cloudy
11:50 PM 57.2 °F 53.6 °F 88% 29.89 in 6.2 mi NNE 5.8 mph - N/A   Partly Cloudy